EW1296 Weather Reports


time (UTC)temp
F
wind
direction
speed
knots
gust
knots
rain 1hr
in
rain 24hr
in
rain mn
in
humidity
%
barometer
mb
20260904065016 79 338 2.6 6.1 0.00 0.05 0.00 79 1010.2
20260904064515 79 270 4.3 8.7 0.00 0.06 0.00 79 1010.4
20260904064017 80 248 5.2 11.3 0.00 0.06 0.00 78 1010.5
20260904063537 80 248 5.2 9.6 0.00 0.06 0.00 78 1010.6
20260904063036 81 270 6.1 13.9 0.00 0.06 0.00 78 1010.7
20260904062516 81 270 6.1 13.9 0.00 0.06 0.00 78 1010.8
20260904062015 81 270 5.2 12.2 0.00 0.07 0.00 79 1010.8
20260904061515 81 270 5.2 12.2 0.00 0.07 0.00 79 1010.7
20260904061017 81 293 5.2 10.4 0.00 0.07 0.00 80 1010.8
20260904060538 81 248 2.6 6.1 0.00 0.07 0.00 80 1010.7
20260904060015 81 248 3.5 7.8 0.00 0.07 0.00 81 1010.6
20260904055516 81 248 1.7 4.3 0.00 0.07 0.00 81 1010.6
20260904055017 81 293 0.9 3.5 0.00 0.07 0.00 82 1010.7
20260904054515 81 248 2.6 4.3 0.00 0.08 0.00 82 1011.0
20260904054015 81 248 2.6 6.1 0.00 0.08 0.00 82 1011.1
20260904053516 81 248 1.7 3.5 0.00 0.09 0.00 82 1011.2
20260904053016 81 248 3.5 6.1 0.00 0.10 0.00 83 1011.4
20260904052515 81 225 0.9 3.5 0.00 0.10 0.00 83 1011.5
20260904052036 81 248 1.7 5.2 0.00 0.10 0.00 83 1011.3
20260904051515 81 225 2.6 5.2 0.00 0.10 0.00 83 1011.3
20260904051015 81 248 2.6 6.1 0.00 0.10 0.00 83 1011.2
20260904050535 81 248 2.6 6.1 0.00 0.11 0.00 83 1011.3
20260904050015 81 248 2.6 6.1 0.00 0.13 0.00 83 1011.4
20260904045515 81 225 3.5 7.8 0.00 0.14 0.00 83 1011.4
20260904045015 81 270 3.5 8.7 0.00 0.14 0.00 82 1011.5
20260904044516 81 225 3.5 7.8 0.00 0.14 0.00 82 1011.6
20260904044017 81 225 3.5 7.8 0.00 0.14 0.00 82 1011.6
20260904043516 81 248 4.3 7.8 0.00 0.14 0.00 82 1011.7
20260904043016 81 225 2.6 6.1 0.00 0.14 0.00 82 1011.7
20260904042515 81 270 1.7 5.2 0.00 0.14 0.00 83 1011.9
20260904042015 81 248 2.6 7.8 0.00 0.14 0.00 83 1011.9
20260904041516 80 248 3.5 7.8 0.00 0.14 0.00 83 1011.9
20260904041015 80 248 4.3 8.7 0.00 0.14 0.00 83 1012.0
20260904040515 80 248 4.3 9.6 0.00 0.14 0.00 84 1012.0
20260904040015 80 248 2.6 5.2 0.00 0.14 0.14 84 1012.0
20260904035516 80 225 1.7 3.5 0.00 0.14 0.14 83 1012.0
20260904035016 81 225 1.7 4.3 0.00 0.14 0.14 83 1012.0
20260904034536 81 248 4.3 8.7 0.00 0.14 0.14 83 1012.0
20260904034016 81 225 3.5 7.0 0.00 0.14 0.14 82 1011.9
20260904033536 81 225 2.6 7.0 0.00 0.14 0.14 82 1011.8
20260904033016 81 225 2.6 6.1 0.00 0.14 0.14 81 1011.8
20260904032516 81 225 2.6 6.1 0.00 0.14 0.14 81 1011.7
20260904032056 81 225 2.6 6.1 0.00 0.14 0.14 81 1011.9
20260904031516 81 248 1.7 3.5 0.00 0.14 0.14 81 1011.8
20260904031016 81 270 1.7 4.3 0.00 0.14 0.14 81 1011.9
20260904030517 81 203 0.9 2.6 0.00 0.14 0.14 81 1012.0
20260904030016 81 270 1.7 4.3 0.00 0.14 0.14 81 1012.2
20260904025517 81 270 1.7 3.5 0.00 0.14 0.14 81 1012.3
20260904025016 81 248 1.7 4.3 0.00 0.14 0.14 80 1012.3
20260904024516 81 248 0.9 3.5 0.00 0.14 0.14 80 1012.3
20260904024017 81 0.0 1.7 0.00 0.14 0.14 80 1012.2
20260904023516 81 248 0.9 2.6 0.00 0.14 0.14 80 1012.2
20260904023016 81 248 0.9 2.6 0.00 0.14 0.14 80 1012.3
20260904022537 81 0.0 0.9 0.00 0.14 0.14 80 1012.3
20260904022016 81 0.0 2.6 0.00 0.14 0.14 80 1012.4
20260904021516 81 248 0.9 2.6 0.00 0.14 0.14 80 1012.6
20260904021016 81 248 1.7 3.5 0.00 0.14 0.14 80 1012.7
20260904020516 81 248 0.9 3.5 0.00 0.14 0.14 80 1012.7
20260904020017 81 248 1.7 4.3 0.00 0.14 0.14 79 1012.8
20260904015516 81 248 1.7 3.5 0.00 0.14 0.14 79 1012.9
20260904015036 81 248 1.7 3.5 0.00 0.14 0.14 78 1012.9
20260904014515 81 248 1.7 3.5 0.00 0.14 0.14 78 1013.0
20260904014017 81 248 2.6 4.3 0.00 0.14 0.14 78 1012.9
20260904013516 81 225 1.7 3.5 0.00 0.14 0.14 78 1012.8
20260904013036 81 203 1.7 3.5 0.00 0.14 0.14 78 1012.8
20260904012516 81 225 1.7 4.3 0.00 0.14 0.14 77 1012.7
20260904012016 81 225 1.7 4.3 0.00 0.14 0.14 77 1012.7
20260904011516 81 225 0.9 3.5 0.00 0.14 0.14 77 1012.8
20260904011016 82 0.0 1.7 0.00 0.14 0.14 77 1012.7
20260904010516 82 0.0 1.7 0.00 0.14 0.14 76 1012.7
20260904010016 82 225 0.9 3.5 0.00 0.14 0.14 75 1012.7
20260904005515 82 0.0 1.7 0.00 0.14 0.14 75 1012.6
20260904005015 82 0.0 0.0 0.00 0.14 0.14 74 1012.5
20260904004515 82 0.0 0.0 0.00 0.14 0.14 74 1012.3
20260904004015 83 0.0 0.0 0.00 0.14 0.14 73 1012.3
20260904003515 83 0.0 0.0 0.00 0.14 0.14 73 1012.4
20260904003015 83 0.0 1.7 0.00 0.14 0.14 72 1012.6
20260904002515 83 225 0.9 2.6 0.00 0.14 0.14 71 1012.7
20260904002016 84 0.0 1.7 0.00 0.14 0.14 71 1012.5
20260904001535 84 225 0.9 3.5 0.00 0.14 0.14 70 1012.4
20260904001015 84 225 0.9 3.5 0.00 0.14 0.14 69 1012.5
20260904000536 85 225 1.7 3.5 0.00 0.14 0.14 68 1012.4
20260904000016 85 225 0.9 4.3 0.00 0.14 0.14 67 1012.4
20260903235515 86 225 0.9 2.6 0.00 0.14 0.14 66 1012.2
20260903235015 86 225 1.7 3.5 0.00 0.14 0.14 64 1011.9
20260903234516 86 225 1.7 3.5 0.00 0.14 0.14 64 1011.9
20260903234016 86 270 1.7 4.3 0.00 0.14 0.14 63 1012.1
20260903233516 86 248 1.7 3.5 0.00 0.14 0.14 63 1012.0
20260903233015 86 248 0.9 3.5 0.00 0.14 0.14 63 1011.9
20260903232515 86 270 2.6 7.0 0.00 0.14 0.14 62 1011.8
20260903232015 87 270 1.7 5.2 0.00 0.14 0.14 62 1011.9
20260903231517 87 270 1.7 6.1 0.00 0.14 0.14 62 1011.9
20260903231015 87 270 2.6 6.1 0.00 0.14 0.14 62 1012.0
20260903230536 87 270 2.6 6.1 0.00 0.14 0.14 61 1012.0
20260903230015 87 248 1.7 4.3 0.00 0.14 0.14 61 1011.9
20260903225516 87 270 1.7 5.2 0.00 0.14 0.14 61 1012.0
20260903225017 87 248 2.6 5.2 0.00 0.14 0.14 61 1012.0
20260903224515 88 225 2.6 6.1 0.00 0.14 0.14 60 1012.0
20260903224015 88 248 1.7 4.3 0.00 0.14 0.14 60 1012.0
20260903223517 88 293 2.6 6.1 0.00 0.14 0.14 59 1012.1
20260903223037 88 248 1.7 4.3 0.00 0.14 0.14 59 1012.1
20260903222516 88 293 1.7 5.2 0.00 0.14 0.14 59 1012.2
20260903222015 89 270 2.6 6.1 0.00 0.14 0.14 59 1012.1
20260903221536 89 315 1.7 3.5 0.00 0.14 0.14 59 1012.1
20260903221015 88 248 2.6 6.1 0.00 0.14 0.14 59 1012.0
20260903220515 89 270 3.5 7.0 0.00 0.14 0.14 58 1012.0
20260903220015 89 315 2.6 5.2 0.00 0.14 0.14 57 1011.9
20260903215515 89 270 2.6 6.1 0.00 0.14 0.14 57 1012.0
20260903215015 90 248 3.5 7.8 0.00 0.14 0.14 56 1011.9
20260903214517 90 270 2.6 7.0 0.00 0.14 0.14 56 1011.8
20260903214018 90 293 3.5 7.8 0.00 0.14 0.14 56 1011.8
20260903213518 90 270 2.6 5.2 0.00 0.14 0.14 56 1011.9
20260903213038 90 293 3.5 7.0 0.00 0.14 0.14 56 1011.8
20260903212517 89 270 2.6 7.8 0.00 0.14 0.14 57 1011.9
20260903212057 89 270 4.3 7.0 0.00 0.14 0.14 57 1012.0
20260903211537 89 270 3.5 7.0 0.00 0.14 0.14 57 1012.0
20260903211037 90 270 2.6 7.0 0.00 0.14 0.14 56 1012.0
20260903210539 90 270 3.5 8.7 0.00 0.14 0.14 55 1012.1
20260903210017 90 248 3.5 8.7 0.00 0.14 0.14 55 1012.0
20260903205517 90 293 3.5 7.8 0.00 0.14 0.14 54 1012.0
20260903205017 91 270 3.5 8.7 0.00 0.14 0.14 54 1012.0
20260903204517 90 225 3.5 7.8 0.00 0.14 0.14 55 1012.0
20260903204017 90 315 3.5 7.0 0.00 0.14 0.14 55 1012.0
20260903203517 90 270 4.3 9.6 0.00 0.14 0.14 55 1012.0
20260903203017 90 270 5.2 11.3 0.00 0.14 0.14 55 1011.9
20260903202517 90 270 4.3 8.7 0.00 0.14 0.14 55 1012.0
20260903202017 90 270 5.2 8.7 0.00 0.14 0.14 55 1011.9
20260903201517 90 270 5.2 9.6 0.00 0.14 0.14 55 1011.9
20260903201017 90 270 3.5 9.6 0.00 0.14 0.14 55 1011.9
20260903200538 90 270 5.2 9.6 0.00 0.14 0.14 55 1012.0
20260903200018 90 248 2.6 8.7 0.00 0.14 0.14 56 1012.1
20260903195517 90 225 2.6 5.2 0.00 0.14 0.14 57 1012.2
20260903195018 89 270 1.7 5.2 0.00 0.14 0.14 57 1012.2
20260903194537 89 0 2.6 8.7 0.00 0.14 0.14 58 1012.2
20260903194015 89 248 2.6 7.0 0.00 0.14 0.14 59 1012.2
20260903193540 89 270 4.3 10.4 0.00 0.14 0.14 58 1012.3
20260903193037 89 248 3.5 7.8 0.00 0.14 0.14 59 1012.4
20260903192517 88 293 1.7 6.1 0.00 0.14 0.14 59 1012.5
20260903192017 89 293 3.5 8.7 0.00 0.14 0.14 59 1012.5
20260903191517 89 248 3.5 9.6 0.00 0.14 0.14 59 1012.6
20260903191017 88 248 4.3 9.6 0.00 0.14 0.14 59 1012.6
20260903190517 88 270 4.3 10.4 0.00 0.14 0.14 60 1012.7
20260903190037 88 270 4.3 11.3 0.00 0.14 0.14 60 1012.7
20260903185517 88 270 5.2 9.6 0.00 0.15 0.14 61 1012.9
20260903185018 88 270 5.2 10.4 0.00 0.15 0.14 60 1012.9
20260903184518 88 248 6.1 13.0 0.00 0.15 0.14 60 1013.0
20260903184018 87 225 6.1 13.0 0.00 0.15 0.14 61 1013.1
20260903183517 87 270 5.2 11.3 0.00 0.15 0.14 61 1013.0
20260903183037 87 270 4.3 10.4 0.00 0.15 0.14 61 1013.1
20260903182517 87 270 7.0 12.2 0.00 0.15 0.14 61 1013.1
20260903182017 87 315 5.2 9.6 0.00 0.15 0.14 61 1013.1
20260903181517 87 225 4.3 8.7 0.00 0.15 0.14 62 1013.1
20260903181017 87 270 6.1 13.0 0.00 0.15 0.14 63 1013.2
20260903180517 86 270 5.2 9.6 0.00 0.15 0.14 63 1013.4
20260903180017 86 270 4.3 9.6 0.00 0.15 0.14 64 1013.4
20260903175517 86 248 4.3 8.7 0.00 0.15 0.14 65 1013.6
20260903175058 86 270 5.2 10.4 0.00 0.15 0.14 64 1013.6
20260903174537 85 270 6.1 10.4 0.00 0.15 0.14 65 1013.6
20260903174037 85 270 6.1 12.2 0.00 0.15 0.14 65 1013.7
20260903173517 86 270 6.1 10.4 0.00 0.15 0.14 64 1013.6
20260903173017 85 270 4.3 9.6 0.00 0.15 0.14 65 1013.6
20260903172517 85 270 3.5 7.8 0.00 0.15 0.14 66 1013.8
20260903172017 84 270 5.2 10.4 0.00 0.15 0.14 66 1014.0
20260903171517 84 270 6.1 11.3 0.00 0.15 0.14 67 1014.0
20260903171018 84 270 7.0 13.0 0.00 0.15 0.14 67 1014.1
20260903170538 84 248 4.3 7.8 0.00 0.15 0.14 68 1014.1
20260903170017 83 270 5.2 10.4 0.00 0.15 0.14 68 1014.2
20260903165518 83 270 7.0 11.3 0.00 0.15 0.14 67 1014.3
20260903165018 84 293 6.1 11.3 0.00 0.15 0.14 65 1014.3
20260903164517 84 270 5.2 12.2 0.00 0.15 0.14 67 1014.4
20260903164017 84 270 7.0 15.6 0.00 0.15 0.14 67 1014.5
20260903163517 84 225 6.1 17.4 0.00 0.15 0.14 67 1014.6
20260903163037 84 270 6.1 11.3 0.00 0.15 0.14 68 1014.5
20260903162517 83 270 6.1 13.0 0.00 0.15 0.14 69 1014.5
20260903162017 83 270 7.8 13.0 0.00 0.15 0.14 70 1014.6
20260903161537 83 225 6.1 12.2 0.00 0.15 0.14 71 1014.6
20260903161017 82 270 4.3 10.4 0.00 0.15 0.14 72 1014.6
20260903160517 81 293 6.1 11.3 0.00 0.15 0.14 73 1014.7
20260903160017 81 270 6.1 10.4 0.00 0.15 0.14 73 1014.6
20260903155517 81 248 4.3 11.3 0.00 0.15 0.14 74 1014.8
20260903155038 81 293 6.1 9.6 0.00 0.15 0.14 74 1015.0
20260903154517 81 270 6.1 10.4 0.00 0.15 0.14 75 1015.0
20260903154017 81 248 3.5 7.8 0.00 0.15 0.14 77 1015.1
20260903153517 80 293 5.2 9.6 0.00 0.15 0.14 77 1015.2
20260903153017 80 270 4.3 8.7 0.00 0.15 0.14 77 1015.1
20260903152517 79 270 6.1 11.3 0.00 0.15 0.14 77 1015.1
20260903152017 79 270 6.1 12.2 0.00 0.15 0.14 78 1015.1
20260903151517 79 270 5.2 11.3 0.00 0.15 0.14 78 1015.1
20260903151037 79 248 6.1 11.3 0.00 0.15 0.14 78 1015.2
20260903150517 79 270 6.1 12.2 0.00 0.15 0.14 79 1014.9
20260903150017 79 270 5.2 9.6 0.00 0.15 0.14 79 1015.1
20260903145517 79 270 5.2 10.4 0.00 0.15 0.14 80 1015.3
20260903145018 79 248 4.3 9.6 0.00 0.15 0.14 82 1015.2
20260903144537 78 270 4.3 8.7 0.00 0.15 0.14 83 1015.2
20260903144018 78 270 3.5 8.7 0.00 0.15 0.14 85 1015.0
20260903143517 77 270 6.1 11.3 0.00 0.15 0.14 86 1014.9
20260903143017 77 248 5.2 10.4 0.00 0.15 0.14 88 1015.0
20260903142517 76 293 6.1 10.4 0.00 0.15 0.14 89 1015.0
20260903142016 76 248 3.5 8.7 0.00 0.15 0.14 91 1015.1
20260903141537 76 248 2.6 6.1 0.00 0.15 0.14 92 1015.0
20260903141017 75 225 4.3 7.8 0.00 0.15 0.14 92 1015.0
20260903140517 74 248 2.6 7.8 0.00 0.15 0.14 93 1015.1
20260903140016 74 270 1.7 6.1 0.00 0.15 0.14 93 1015.2
20260903135537 74 270 2.6 6.1 0.00 0.15 0.14 93 1015.3
20260903135017 74 225 2.6 6.1 0.00 0.15 0.14 94 1015.2
20260903134517 74 203 3.5 7.8 0.00 0.15 0.14 94 1015.2
20260903134016 74 225 2.6 7.8 0.00 0.15 0.14 94 1015.4
20260903133517 73 225 1.7 6.1 0.00 0.15 0.14 95 1015.3
20260903133017 73 248 1.7 7.8 0.00 0.15 0.14 94 1015.4
20260903132537 73 225 2.6 7.0 0.00 0.15 0.14 94 1015.5
20260903132017 73 203 1.7 7.0 0.00 0.15 0.14 95 1015.6
20260903131516 72 225 1.7 5.2 0.00 0.15 0.14 95 1015.1
20260903131037 72 225 1.7 4.3 0.00 0.15 0.14 95 1015.3
20260903130517 72 225 1.7 5.2 0.00 0.15 0.14 95 1015.4
20260903130017 72 225 0.9 5.2 0.00 0.15 0.14 95 1015.5
20260903125539 72 248 2.6 5.2 0.00 0.15 0.14 95 1015.7
20260903125017 72 248 1.7 5.2 0.00 0.15 0.14 95 1015.7
20260903124516 72 270 0.9 3.5 0.00 0.15 0.14 95 1015.6
20260903124017 72 270 0.9 7.8 0.00 0.15 0.14 95 1015.5
20260903123538 72 225 2.6 6.1 0.00 0.15 0.14 95 1015.6
20260903123036 72 270 0.9 4.3 0.00 0.15 0.14 95 1015.4
20260903122516 71 248 1.7 5.2 0.00 0.15 0.14 95 1015.3
20260903122018 71 225 2.6 7.0 0.00 0.15 0.14 95 1015.1
20260903121538 71 225 3.5 7.8 0.00 0.15 0.14 95 1015.3
20260903121016 71 248 1.7 5.2 0.00 0.15 0.14 95 1015.7
20260903120518 71 225 2.6 6.1 0.00 0.15 0.14 95 1015.6
20260903120018 71 270 3.5 7.8 0.00 0.15 0.14 95 1015.9
20260903115516 71 270 1.7 6.1 0.00 0.15 0.14 95 1015.7
20260903115036 71 270 2.6 7.0 0.00 0.15 0.14 95 1015.9
20260903114516 71 270 3.5 7.8 0.00 0.15 0.14 95 1015.7
20260903114038 71 270 3.5 7.8 0.00 0.15 0.14 95 1015.4
20260903113516 71 270 4.3 7.8 0.00 0.15 0.14 95 1015.8
20260903113018 71 270 4.3 7.8 0.00 0.15 0.14 95 1015.6
20260903112537 71 270 3.5 6.1 0.00 0.15 0.14 95 1015.5
20260903112016 71 270 1.7 6.1 0.00 0.15 0.14 95 1015.4
20260903111516 71 270 3.5 7.0 0.00 0.15 0.14 95 1015.5
20260903111016 71 270 4.3 8.7 0.00 0.15 0.14 95 1015.5
20260903110517 71 270 2.6 7.0 0.00 0.15 0.14 95 1015.6
20260903110016 71 270 1.7 6.1 0.00 0.15 0.14 95 1015.7
20260903105516 71 270 0.9 6.1 0.00 0.15 0.14 95 1015.7
20260903105016 71 270 0.9 5.2 0.00 0.15 0.14 95 1015.5
20260903104517 71 0.0 0.0 0.00 0.15 0.14 95 1015.5
20260903104016 71 0.0 0.0 0.00 0.15 0.14 95 1015.6
20260903103516 71 248 0.9 3.5 0.00 0.15 0.14 95 1015.5
20260903103016 71 248 2.6 7.8 0.00 0.15 0.14 95 1015.5
20260903102516 71 225 1.7 7.0 0.00 0.15 0.14 95 1015.5
20260903102016 71 225 3.5 7.8 0.00 0.15 0.14 95 1015.3
20260903101516 71 225 0.9 7.0 0.00 0.15 0.14 95 1015.5
20260903101016 71 248 0.9 4.3 0.00 0.15 0.14 95 1015.6
20260903100516 71 225 2.6 7.0 0.00 0.15 0.14 95 1015.7
20260903100016 71 248 0.9 5.2 0.00 0.15 0.14 95 1015.6
20260903095517 71 225 1.7 6.1 0.00 0.15 0.14 96 1015.7
20260903095018 71 0.0 3.5 0.00 0.15 0.14 96 1015.7
20260903094517 71 270 0.9 3.5 0.00 0.15 0.14 95 1015.6
20260903094016 71 0.0 1.7 0.00 0.15 0.14 95 1015.1
20260903093537 71 225 1.7 5.2 0.01 0.15 0.14 95 1015.2
20260903093016 71 248 2.6 6.1 0.01 0.15 0.14 95 1015.2
20260903092516 71 248 3.5 7.0 0.01 0.15 0.14 95 1015.1
20260903092016 71 248 4.3 10.4 0.01 0.15 0.14 95 1015.0
20260903091536 71 225 2.6 7.0 0.01 0.15 0.14 95 1015.0
20260903091017 71 203 4.3 9.6 0.01 0.15 0.14 95 1014.7
20260903090536 71 225 3.5 7.8 0.01 0.15 0.14 95 1014.7
20260903090016 71 225 4.3 8.7 0.01 0.15 0.14 95 1015.0
20260903085536 71 225 4.3 8.7 0.01 0.15 0.14 95 1015.0
20260903085017 71 225 3.5 9.6 0.01 0.15 0.14 95 1014.7
20260903084536 71 225 0.9 7.0 0.01 0.15 0.14 95 1014.5
20260903084016 71 225 4.3 9.6 0.01 0.15 0.14 95 1015.4
20260903083516 71 225 3.5 9.6 0.00 0.14 0.13 95 1015.9
20260903083017 71 270 1.7 7.0 0.01 0.14 0.13 95 1016.2
20260903082536 71 248 2.6 7.0 0.01 0.14 0.13 95 1016.4
20260903082037 71 270 0.9 5.2 0.02 0.14 0.13 95 1016.5
20260903081618 71 248 1.7 6.1 0.02 0.14 0.13 95 1016.5
20260903081016 71 248 1.7 5.2 0.03 0.14 0.13 95 1016.2
20260903080516 71 248 2.6 5.2 0.03 0.14 0.13 95 1016.2
20260903080016 71 225 1.7 6.1 0.04 0.14 0.13 95 1015.9
20260903075517 71 0.0 0.9 0.04 0.14 0.13 95 1015.7
20260903075037 71 0.0 0.0 0.04 0.14 0.13 95 1015.8
20260903074537 71 0.0 1.7 0.05 0.14 0.13 95 1015.6
20260903074016 71 0.0 5.2 0.05 0.14 0.13 94 1015.5
20260903073517 71 225 1.7 6.1 0.05 0.14 0.13 94 1015.7
20260903073016 71 225 0.9 3.5 0.04 0.13 0.12 94 1015.8
20260903072516 71 0.0 3.5 0.04 0.13 0.12 94 1016.0
20260903072016 71 225 0.9 2.6 0.04 0.12 0.11 94 1016.1
20260903071516 71 0.0 1.7 0.04 0.12 0.11 94 1016.3
20260903071017 71 0.0 0.9 0.03 0.11 0.10 94 1016.5
20260903070516 71 0.0 2.6 0.03 0.11 0.10 94 1016.7
20260903070017 71 225 0.9 3.5 0.02 0.10 0.09 94 1016.9
20260903065516 71 248 1.7 5.2 0.02 0.10 0.09 94 1017.1